SAS33D LEPA-EKCH

Flight info

Callsign SAS33D
Flight time 2h 43m
Altitude 34000
Route MEROS N853 LUMAS DCT MAXIR DCT LUSOL DCT BODRU DCT OKTET DCT IRMAR DCT KINES DCT VANAS DCT ESOKO/N0439F350 DCT GODRA/N0438F360 DCT LOKTA DCT TEDGO/N0439F350 DCT HAREM DCT LOHRE DCT BERXO DCT MAKEL N851 GESKA Z711 MONAK
Aircraft A320/M-SDE1FGHIJ1RWXYZ/LB1

Departure

Time 2026-04-25 12:25
Airport Palma de Mallorca Airport (LEPA)

Arrival

Time 2026-04-25 15:08
Airport Copenhagen Kastrup Airport (EKCH)
Time Latitude Longitude Altitude Speed Heading
2026-04-25 11:33 39.54742 2.73367 30 ft 0 kts 237°
2026-04-25 12:10 39.54755 2.73392 30 ft 4 kts 229°
2026-04-25 12:11 39.54775 2.73413 30 ft 4 kts 196°
2026-04-25 12:11 39.54792 2.73412 30 ft 1 kts 137°
2026-04-25 12:11 39.54793 2.73412 30 ft 1 kts 137°
2026-04-25 12:16 39.54784 2.73424 30 ft 5 kts 129°
2026-04-25 12:16 39.54776 2.73471 30 ft 6 kts 87°
2026-04-25 12:17 39.54766 2.73529 30 ft 7 kts 124°
2026-04-25 12:17 39.54720 2.73572 30 ft 9 kts 146°
2026-04-25 12:17 39.54662 2.73623 30 ft 11 kts 130°
2026-04-25 12:17 39.54679 2.73710 30 ft 11 kts 58°
2026-04-25 12:18 39.54722 2.73802 30 ft 13 kts 59°
2026-04-25 12:18 39.54771 2.73905 30 ft 13 kts 58°
2026-04-25 12:18 39.54813 2.73988 30 ft 10 kts 47°
2026-04-25 12:18 39.54873 2.73984 30 ft 9 kts 328°
2026-04-25 12:19 39.54960 2.74004 30 ft 8 kts 26°
2026-04-25 12:19 39.55038 2.73962 30 ft 11 kts 328°
2026-04-25 12:19 39.55113 2.73903 30 ft 14 kts 329°
2026-04-25 12:20 39.55202 2.73833 30 ft 15 kts 329°
2026-04-25 12:20 39.55292 2.73761 30 ft 16 kts 328°
2026-04-25 12:20 39.55389 2.73685 30 ft 16 kts 329°
2026-04-25 12:20 39.55481 2.73613 30 ft 15 kts 328°
2026-04-25 12:21 39.55565 2.73546 30 ft 12 kts 328°
2026-04-25 12:21 39.55636 2.73504 30 ft 11 kts 359°
2026-04-25 12:21 39.55693 2.73577 30 ft 13 kts 59°
2026-04-25 12:21 39.55744 2.73686 30 ft 15 kts 58°
2026-04-25 12:22 39.55804 2.73813 30 ft 17 kts 58°
2026-04-25 12:22 39.55867 2.73947 30 ft 18 kts 59°
2026-04-25 12:22 39.55929 2.74078 30 ft 16 kts 58°
2026-04-25 12:22 39.55985 2.74190 30 ft 15 kts 52°
2026-04-25 12:23 39.56074 2.74282 30 ft 18 kts 34°
2026-04-25 12:23 39.56164 2.74360 30 ft 13 kts 32°
2026-04-25 12:23 39.56240 2.74327 30 ft 13 kts 294°
2026-04-25 12:23 39.56224 2.74253 30 ft 4 kts 238°
2026-04-25 12:24 39.56200 2.74203 30 ft 22 kts 238°
2026-04-25 12:24 39.55995 2.73769 30 ft 88 kts 238°
2026-04-25 12:24 39.55579 2.72889 30 ft 138 kts 238°
2026-04-25 12:24 39.55015 2.71703 232 ft 158 kts 238°
2026-04-25 12:25 39.54458 2.70525 885 ft 153 kts 238°
2026-04-25 12:25 39.53912 2.69364 1520 ft 149 kts 238°
2026-04-25 12:25 39.53366 2.68215 1984 ft 154 kts 238°
2026-04-25 12:25 39.52758 2.66970 2202 ft 173 kts 237°
2026-04-25 12:26 39.52085 2.65587 2504 ft 189 kts 236°
2026-04-25 12:26 39.51359 2.64089 2865 ft 203 kts 237°
2026-04-25 12:26 39.50579 2.62478 3257 ft 218 kts 237°
2026-04-25 12:26 39.49664 2.60855 3727 ft 232 kts 220°
2026-04-25 12:27 39.48210 2.59772 4049 ft 253 kts 201°
2026-04-25 12:27 39.46552 2.58793 4616 ft 267 kts 205°
2026-04-25 12:27 39.44893 2.57723 5393 ft 272 kts 206°
2026-04-25 12:27 39.43134 2.56791 6165 ft 276 kts 188°
2026-04-25 12:28 39.41243 2.57059 6896 ft 278 kts 154°
2026-04-25 12:28 39.39712 2.58567 7633 ft 281 kts 132°
2026-04-25 12:28 39.38349 2.60397 8401 ft 285 kts 138°
2026-04-25 12:28 39.36811 2.62036 9137 ft 288 kts 135°
2026-04-25 12:29 39.35421 2.63918 9852 ft 291 kts 132°
2026-04-25 12:29 39.33978 2.65792 10458 ft 301 kts 134°
2026-04-25 12:29 39.32408 2.67730 10616 ft 324 kts 135°
2026-04-25 12:29 39.30716 2.69773 10923 ft 339 kts 136°
2026-04-25 12:30 39.28971 2.71871 11516 ft 344 kts 135°
2026-04-25 12:30 39.27491 2.74292 12137 ft 346 kts 115°
2026-04-25 12:30 39.26851 2.77260 12761 ft 346 kts 92°
2026-04-25 12:30 39.26808 2.80373 13409 ft 348 kts 89°
2026-04-25 12:31 39.26804 2.83511 14027 ft 351 kts 89°
2026-04-25 12:31 39.26837 2.86674 14629 ft 354 kts 84°
2026-04-25 12:31 39.27265 2.89807 15186 ft 356 kts 73°
2026-04-25 12:31 39.28175 2.92789 15744 ft 359 kts 62°
2026-04-25 12:32 39.29413 2.95598 16287 ft 362 kts 59°
2026-04-25 12:32 39.30678 2.98430 16830 ft 365 kts 59°
2026-04-25 12:32 39.31948 3.01281 17362 ft 368 kts 59°
2026-04-25 12:32 39.33227 3.04157 17885 ft 371 kts 59°
2026-04-25 12:33 39.34513 3.07055 18423 ft 374 kts 60°
2026-04-25 12:33 39.35813 3.09986 18962 ft 377 kts 60°
2026-04-25 12:33 39.37106 3.12903 19475 ft 381 kts 60°
2026-04-25 12:33 39.38427 3.15883 19998 ft 384 kts 60°
2026-04-25 12:34 39.39755 3.18891 20504 ft 387 kts 60°
2026-04-25 12:34 39.41096 3.21936 20998 ft 391 kts 60°
2026-04-25 12:34 39.42447 3.25000 21474 ft 393 kts 60°
2026-04-25 12:34 39.43351 3.27038 21783 ft 396 kts 59°
2026-04-25 12:35 39.45224 3.31164 22402 ft 399 kts 59°
2026-04-25 12:35 39.46660 3.34266 22827 ft 402 kts 58°
2026-04-25 12:35 39.48110 3.37380 23245 ft 405 kts 58°
2026-04-25 12:35 39.49570 3.40522 23668 ft 408 kts 58°
2026-04-25 12:36 39.51035 3.43687 24081 ft 411 kts 58°
2026-04-25 12:36 39.52504 3.46873 24481 ft 414 kts 58°
2026-04-25 12:36 39.53978 3.50085 24884 ft 415 kts 59°
2026-04-25 12:36 39.55455 3.53309 25271 ft 418 kts 59°
2026-04-25 12:37 39.56940 3.56555 25647 ft 419 kts 59°
2026-04-25 12:37 39.58434 3.59825 26006 ft 422 kts 59°
2026-04-25 12:37 39.59928 3.63101 26353 ft 424 kts 59°
2026-04-25 12:37 39.61412 3.66357 26696 ft 426 kts 59°
2026-04-25 12:38 39.62919 3.69667 27025 ft 427 kts 59°
2026-04-25 12:38 39.64429 3.72991 27345 ft 429 kts 59°
2026-04-25 12:38 39.65947 3.76333 27673 ft 431 kts 59°
2026-04-25 12:38 39.67469 3.79688 27994 ft 432 kts 58°
2026-04-25 12:39 39.69000 3.83061 28314 ft 434 kts 58°
2026-04-25 12:39 39.70536 3.86445 28621 ft 436 kts 59°
2026-04-25 12:39 39.72078 3.89847 28922 ft 438 kts 58°
2026-04-25 12:39 39.73625 3.93269 29228 ft 440 kts 59°
2026-04-25 12:40 39.75174 3.96702 29523 ft 441 kts 59°
2026-04-25 12:40 39.76722 4.00142 29900 ft 440 kts 58°
2026-04-25 12:40 39.78266 4.03570 30316 ft 439 kts 58°
2026-04-25 12:40 39.79806 4.06991 30717 ft 438 kts 59°
2026-04-25 12:41 39.81339 4.10409 31102 ft 437 kts 59°
2026-04-25 12:41 39.82882 4.13815 31484 ft 436 kts 56°
2026-04-25 12:41 39.84722 4.16931 31853 ft 434 kts 46°
2026-04-25 12:41 39.86967 4.19543 32221 ft 433 kts 35°
2026-04-25 12:42 39.89533 4.21563 32589 ft 431 kts 25°
2026-04-25 12:42 39.90461 4.22102 32708 ft 431 kts 21°
2026-04-25 12:42 39.95274 4.23702 33287 ft 430 kts 10°
2026-04-25 12:42 39.98214 4.24385 33637 ft 429 kts 10°
2026-04-25 12:43 40.01154 4.25074 33965 ft 429 kts 10°
2026-04-25 12:43 40.04093 4.25768 34112 ft 431 kts 10°
2026-04-25 12:43 40.10080 4.27187 34138 ft 442 kts 10°
2026-04-25 12:44 40.16118 4.28617 34137 ft 444 kts 10°
2026-04-25 12:45 40.25252 4.30774 34137 ft 445 kts 10°
2026-04-25 12:45 40.34385 4.32933 34137 ft 445 kts 10°
2026-04-25 12:46 40.40483 4.34389 34140 ft 445 kts 10°
2026-04-25 12:46 40.46570 4.35840 34142 ft 445 kts 10°
2026-04-25 12:47 40.52667 4.37285 34144 ft 445 kts 10°
2026-04-25 12:47 40.58765 4.38731 34142 ft 445 kts 10°
2026-04-25 12:48 40.64854 4.40186 34141 ft 444 kts 10°
2026-04-25 12:48 40.70900 4.41641 34140 ft 444 kts 10°
2026-04-25 12:49 40.76985 4.43105 34138 ft 444 kts 10°
2026-04-25 12:49 40.83062 4.44564 34135 ft 444 kts 10°
2026-04-25 12:50 40.89147 4.46032 34139 ft 445 kts 10°
2026-04-25 12:50 40.95231 4.47516 34139 ft 445 kts 10°
2026-04-25 12:51 41.01327 4.48991 34139 ft 445 kts 10°
2026-04-25 12:51 41.07412 4.50465 34138 ft 445 kts 10°
2026-04-25 12:52 41.12469 4.51695 34140 ft 445 kts 10°
2026-04-25 12:52 41.18558 4.53181 34141 ft 445 kts 10°
2026-04-25 12:53 41.25643 4.54903 34137 ft 445 kts 10°
2026-04-25 12:53 41.30746 4.56155 34134 ft 445 kts 10°
2026-04-25 12:54 41.36847 4.57646 34133 ft 446 kts 10°
2026-04-25 12:54 41.42949 4.59143 34134 ft 446 kts 10°
2026-04-25 12:55 41.48020 4.60394 34131 ft 446 kts 10°
2026-04-25 12:55 41.55148 4.62153 34131 ft 446 kts 10°
2026-04-25 12:56 41.61204 4.63656 34132 ft 446 kts 10°
2026-04-25 12:56 41.67302 4.65158 34130 ft 445 kts 10°
2026-04-25 12:57 41.73325 4.67087 34127 ft 445 kts 21°
2026-04-25 12:57 41.78767 4.71009 34129 ft 445 kts 31°
2026-04-25 12:58 41.84078 4.75281 34128 ft 445 kts 31°
2026-04-25 12:58 41.89398 4.79556 34126 ft 445 kts 31°
2026-04-25 12:59 41.94711 4.83846 34123 ft 445 kts 31°
2026-04-25 12:59 42.00030 4.88150 34119 ft 445 kts 31°
2026-04-25 13:00 42.04448 4.91722 34111 ft 446 kts 31°
2026-04-25 13:00 42.10661 4.96752 34100 ft 446 kts 31°
2026-04-25 13:01 42.15985 5.01078 34097 ft 447 kts 31°
2026-04-25 13:01 42.21279 5.05389 34098 ft 447 kts 31°
2026-04-25 13:02 42.26612 5.09742 34098 ft 448 kts 31°
2026-04-25 13:02 42.31940 5.14112 34101 ft 448 kts 31°
2026-04-25 13:03 42.37273 5.18490 34101 ft 448 kts 31°
2026-04-25 13:03 42.42606 5.22858 34102 ft 448 kts 31°
2026-04-25 13:04 42.47939 5.27239 34100 ft 448 kts 31°
2026-04-25 13:04 42.53270 5.31635 34099 ft 449 kts 31°
2026-04-25 13:05 42.58600 5.36038 34103 ft 449 kts 31°
2026-04-25 13:05 42.63930 5.40457 34103 ft 449 kts 31°
2026-04-25 13:06 42.69255 5.44879 34102 ft 449 kts 31°
2026-04-25 13:06 42.74575 5.49304 34100 ft 448 kts 31°
2026-04-25 13:07 42.79904 5.53739 34088 ft 449 kts 31°
2026-04-25 13:07 42.85232 5.58183 34087 ft 449 kts 31°
2026-04-25 13:08 42.90556 5.62644 34089 ft 449 kts 31°
2026-04-25 13:08 42.95886 5.67113 34086 ft 449 kts 31°
2026-04-25 13:09 43.01218 5.71579 34081 ft 450 kts 31°
2026-04-25 13:09 43.06524 5.76034 34082 ft 450 kts 31°
2026-04-25 13:10 43.11860 5.80543 34082 ft 451 kts 31°
2026-04-25 13:10 43.17201 5.85057 34083 ft 451 kts 31°
2026-04-25 13:11 43.22555 5.89585 34084 ft 452 kts 31°
2026-04-25 13:11 43.27904 5.94128 34082 ft 452 kts 31°
2026-04-25 13:12 43.33255 5.98687 34078 ft 452 kts 31°
2026-04-25 13:12 43.37778 6.02270 34074 ft 451 kts 22°
2026-04-25 13:13 43.41713 6.04028 34076 ft 449 kts 10°
2026-04-25 13:13 43.44802 6.04581 34076 ft 447 kts
2026-04-25 13:13 43.51019 6.05195 34068 ft 448 kts
2026-04-25 13:14 43.57250 6.05824 34072 ft 449 kts
2026-04-25 13:14 43.63489 6.06456 34072 ft 449 kts
2026-04-25 13:15 43.69726 6.07085 34075 ft 449 kts
2026-04-25 13:15 43.75947 6.07943 34070 ft 450 kts 11°
2026-04-25 13:16 43.81806 6.10988 34069 ft 452 kts 25°
2026-04-25 13:16 43.87455 6.14844 34064 ft 453 kts 25°
2026-04-25 13:17 43.93110 6.18697 34069 ft 453 kts 25°
2026-04-25 13:17 43.98772 6.22564 34069 ft 453 kts 25°
2026-04-25 13:18 44.04434 6.26441 34069 ft 453 kts 25°
2026-04-25 13:18 44.10087 6.30322 34068 ft 453 kts 25°
2026-04-25 13:19 44.15740 6.34222 34067 ft 453 kts 25°
2026-04-25 13:19 44.19474 6.36808 34064 ft 453 kts 25°
2026-04-25 13:20 44.27030 6.42025 34069 ft 454 kts 25°
2026-04-25 13:20 44.32689 6.45934 34076 ft 454 kts 25°
2026-04-25 13:21 44.38351 6.49859 34076 ft 454 kts 25°
2026-04-25 13:21 44.44009 6.53794 34073 ft 454 kts 25°
2026-04-25 13:22 44.49632 6.57712 34072 ft 455 kts 25°
2026-04-25 13:23 44.58139 6.63666 34068 ft 455 kts 25°
2026-04-25 13:23 44.63815 6.67632 34061 ft 456 kts 24°
2026-04-25 13:24 44.69490 6.71612 34058 ft 456 kts 24°
2026-04-25 13:24 44.75162 6.75623 34053 ft 456 kts 24°
2026-04-25 13:25 44.81125 6.78405 34049 ft 450 kts
2026-04-25 13:25 44.87342 6.78551 34047 ft 447 kts 354°
2026-04-25 13:26 44.93559 6.78139 34049 ft 448 kts 355°
2026-04-25 13:26 44.99791 6.77747 34051 ft 448 kts 354°
2026-04-25 13:27 45.06019 6.77328 34059 ft 448 kts 354°
2026-04-25 13:27 45.12248 6.76900 34060 ft 448 kts 354°
2026-04-25 13:28 45.18470 6.76484 34055 ft 447 kts 354°
2026-04-25 13:28 45.24690 6.76079 34051 ft 447 kts 354°
2026-04-25 13:29 45.30906 6.75665 34050 ft 447 kts 354°
2026-04-25 13:29 45.37118 6.75249 34056 ft 447 kts 354°
2026-04-25 13:30 45.46422 6.76087 34074 ft 455 kts 14°
2026-04-25 13:31 45.54934 6.82292 34069 ft 461 kts 27°
2026-04-25 13:31 45.60478 6.86894 34059 ft 461 kts 27°
2026-04-25 13:32 45.66028 6.91507 34059 ft 462 kts 27°
2026-04-25 13:32 45.71538 6.96110 34053 ft 462 kts 27°
2026-04-25 13:33 45.77133 7.00789 34051 ft 463 kts 27°
2026-04-25 13:33 45.82654 7.05418 34051 ft 463 kts 27°
2026-04-25 13:34 45.88225 7.10097 34318 ft 464 kts 27°
2026-04-25 13:34 45.91006 7.12440 34649 ft 463 kts 27°
2026-04-25 13:34 45.93787 7.14787 34964 ft 463 kts 27°
2026-04-25 13:35 45.99339 7.19489 35061 ft 463 kts 27°
2026-04-25 13:35 46.03958 7.23398 35070 ft 462 kts 27°
2026-04-25 13:36 46.09490 7.28080 35076 ft 461 kts 27°
2026-04-25 13:36 46.15023 7.32780 35088 ft 462 kts 27°
2026-04-25 13:37 46.20555 7.37505 35086 ft 462 kts 27°
2026-04-25 13:37 46.26089 7.42250 35084 ft 462 kts 27°
2026-04-25 13:38 46.31631 7.47003 35087 ft 463 kts 27°
2026-04-25 13:38 46.37166 7.51754 35082 ft 463 kts 27°
2026-04-25 13:39 46.42707 7.56519 35123 ft 463 kts 27°
2026-04-25 13:39 46.48250 7.61296 35114 ft 464 kts 27°
2026-04-25 13:40 46.53792 7.66097 35106 ft 463 kts 28°
2026-04-25 13:40 46.56559 7.68503 35237 ft 464 kts 28°
2026-04-25 13:40 46.59321 7.70903 35611 ft 461 kts 28°
2026-04-25 13:40 46.62072 7.73326 35938 ft 461 kts 28°
2026-04-25 13:41 46.64765 7.75749 36070 ft 461 kts 29°
2026-04-25 13:41 46.70185 7.80715 36080 ft 460 kts 29°
2026-04-25 13:42 46.75589 7.85670 36081 ft 458 kts 29°
2026-04-25 13:42 46.80996 7.90604 36082 ft 457 kts 29°
2026-04-25 13:43 46.86389 7.95523 36079 ft 456 kts 29°
2026-04-25 13:43 46.91774 8.00430 36084 ft 456 kts 29°
2026-04-25 13:44 46.97153 8.05361 36084 ft 456 kts 30°
2026-04-25 13:44 47.02527 8.10322 36083 ft 457 kts 30°
2026-04-25 13:45 47.07899 8.15290 36090 ft 456 kts 30°
2026-04-25 13:45 47.13277 8.20259 36103 ft 456 kts 30°
2026-04-25 13:46 47.18644 8.25225 36111 ft 456 kts 30°
2026-04-25 13:46 47.24009 8.30206 36119 ft 455 kts 30°
2026-04-25 13:47 47.29360 8.35191 36128 ft 455 kts 30°
2026-04-25 13:47 47.34704 8.40179 36129 ft 454 kts 30°
2026-04-25 13:48 47.40039 8.45175 36131 ft 454 kts 30°
2026-04-25 13:48 47.45363 8.50163 36132 ft 453 kts 30°
2026-04-25 13:49 47.50678 8.55163 36126 ft 453 kts 30°
2026-04-25 13:49 47.55958 8.60146 36125 ft 453 kts 30°
2026-04-25 13:50 47.61263 8.65163 36127 ft 452 kts 30°
2026-04-25 13:50 47.66577 8.70192 36120 ft 453 kts 30°
2026-04-25 13:51 47.71882 8.75225 36120 ft 453 kts 30°
2026-04-25 13:51 47.77196 8.80282 36115 ft 454 kts 30°
2026-04-25 13:52 47.82511 8.85355 36110 ft 454 kts 30°
2026-04-25 13:52 47.87831 8.90445 36109 ft 455 kts 30°
2026-04-25 13:53 47.93157 8.95558 36103 ft 456 kts 30°
2026-04-25 13:53 47.98494 9.00690 36099 ft 457 kts 30°
2026-04-25 13:54 48.03840 9.05838 36099 ft 457 kts 30°
2026-04-25 13:54 48.09186 9.11004 36103 ft 458 kts 30°
2026-04-25 13:55 48.14592 9.16030 36101 ft 456 kts 23°
2026-04-25 13:55 48.20551 9.18902 36099 ft 448 kts
2026-04-25 13:56 48.26690 9.19931 36095 ft 447 kts
2026-04-25 13:56 48.32875 9.20971 36091 ft 447 kts
2026-04-25 13:57 48.39067 9.22028 36090 ft 448 kts
2026-04-25 13:57 48.45262 9.23087 36091 ft 448 kts
2026-04-25 13:58 48.51454 9.24139 36094 ft 448 kts
2026-04-25 13:58 48.57647 9.25189 36094 ft 447 kts
2026-04-25 13:59 48.63833 9.26234 36410 ft 447 kts
2026-04-25 13:59 48.66917 9.26724 36701 ft 445 kts
2026-04-25 13:59 48.69993 9.27193 37004 ft 443 kts
2026-04-25 14:00 48.76070 9.28107 37082 ft 436 kts
2026-04-25 14:00 48.82094 9.29000 37106 ft 434 kts
2026-04-25 14:01 48.88102 9.29911 37088 ft 433 kts
2026-04-25 14:01 48.94097 9.30838 37090 ft 433 kts
2026-04-25 14:02 49.00089 9.31764 37095 ft 432 kts
2026-04-25 14:02 49.06042 9.32681 37101 ft 432 kts
2026-04-25 14:03 49.12028 9.33614 37107 ft 432 kts
2026-04-25 14:03 49.18011 9.34540 37116 ft 432 kts
2026-04-25 14:04 49.23991 9.35469 37123 ft 432 kts
2026-04-25 14:04 49.29965 9.36408 37127 ft 431 kts
2026-04-25 14:05 49.35930 9.37350 37128 ft 431 kts
2026-04-25 14:05 49.41885 9.38292 37128 ft 430 kts
2026-04-25 14:06 49.47797 9.39218 37129 ft 430 kts
2026-04-25 14:06 49.53747 9.40144 37126 ft 429 kts
2026-04-25 14:07 49.59693 9.41080 37128 ft 429 kts
2026-04-25 14:07 49.65630 9.42035 37129 ft 429 kts
2026-04-25 14:08 49.71559 9.42984 37127 ft 428 kts
2026-04-25 14:08 49.77504 9.43926 37127 ft 428 kts
2026-04-25 14:09 49.83400 9.44869 37127 ft 428 kts
2026-04-25 14:09 49.89324 9.45825 37128 ft 428 kts
2026-04-25 14:10 49.95244 9.46778 37126 ft 427 kts
2026-04-25 14:10 50.01154 9.47726 37127 ft 427 kts
2026-04-25 14:11 50.07063 9.48758 37131 ft 429 kts
2026-04-25 14:11 50.12906 9.50699 37134 ft 429 kts
2026-04-25 14:12 50.18740 9.52650 37131 ft 428 kts
2026-04-25 14:12 50.24571 9.54588 37129 ft 428 kts
2026-04-25 14:13 50.30394 9.56550 37129 ft 428 kts
2026-04-25 14:13 50.36213 9.58520 37128 ft 428 kts
2026-04-25 14:14 50.42033 9.60490 37127 ft 427 kts
2026-04-25 14:14 50.47843 9.62460 37127 ft 427 kts
2026-04-25 14:15 50.53651 9.64442 37127 ft 427 kts
2026-04-25 14:15 50.59460 9.66413 37127 ft 427 kts
2026-04-25 14:16 50.65264 9.68382 37126 ft 427 kts
2026-04-25 14:16 50.71059 9.70363 37127 ft 426 kts
2026-04-25 14:17 50.76850 9.72353 37126 ft 426 kts
2026-04-25 14:17 50.82638 9.74341 37127 ft 425 kts
2026-04-25 14:18 50.87443 9.75995 37126 ft 425 kts
2026-04-25 14:18 50.93223 9.77987 37126 ft 425 kts
2026-04-25 14:19 50.98996 9.79985 37126 ft 424 kts
2026-04-25 14:19 51.04761 9.81994 37120 ft 424 kts
2026-04-25 14:20 51.11455 9.84336 37121 ft 423 kts
2026-04-25 14:20 51.16275 9.86021 37121 ft 423 kts
2026-04-25 14:21 51.22013 9.88044 37124 ft 423 kts
2026-04-25 14:21 51.27637 9.90995 37125 ft 426 kts 14°
2026-04-25 14:22 51.33207 9.94071 37125 ft 425 kts 14°
2026-04-25 14:22 51.38804 9.97184 37122 ft 425 kts 14°
2026-04-25 14:23 51.44396 10.00293 37118 ft 425 kts 14°
2026-04-25 14:23 51.49988 10.03400 37118 ft 425 kts 13°
2026-04-25 14:24 51.55578 10.06523 37110 ft 425 kts 14°
2026-04-25 14:24 51.61163 10.09650 37108 ft 425 kts 13°
2026-04-25 14:25 51.66756 10.12777 37108 ft 426 kts 13°
2026-04-25 14:25 51.72349 10.15908 37106 ft 425 kts 13°
2026-04-25 14:26 51.77934 10.19064 37109 ft 425 kts 14°
2026-04-25 14:26 51.83490 10.22215 37097 ft 426 kts 14°
2026-04-25 14:27 51.89084 10.25385 37094 ft 426 kts 13°
2026-04-25 14:27 51.94669 10.28552 37092 ft 426 kts 14°
2026-04-25 14:28 52.00267 10.31743 37102 ft 425 kts 14°
2026-04-25 14:28 52.05854 10.34938 37090 ft 425 kts 13°
2026-04-25 14:29 52.11436 10.38130 37083 ft 425 kts 13°
2026-04-25 14:29 52.17015 10.41334 37082 ft 425 kts 13°
2026-04-25 14:30 52.22586 10.44534 37078 ft 425 kts 13°
2026-04-25 14:30 52.30946 10.49353 37073 ft 425 kts 13°
2026-04-25 14:31 52.36481 10.52566 37073 ft 425 kts 13°
2026-04-25 14:31 52.42050 10.55802 37071 ft 425 kts 13°
2026-04-25 14:32 52.47624 10.59050 37072 ft 425 kts 13°
2026-04-25 14:32 52.53191 10.62303 37070 ft 425 kts 13°
2026-04-25 14:33 52.58764 10.65582 37068 ft 425 kts 13°
2026-04-25 14:33 52.64329 10.68850 37068 ft 425 kts 13°
2026-04-25 14:34 52.69896 10.72120 37066 ft 425 kts 13°
2026-04-25 14:34 52.75463 10.75400 37065 ft 425 kts 13°
2026-04-25 14:35 52.81041 10.78700 37067 ft 425 kts 13°
2026-04-25 14:35 52.86610 10.82016 37066 ft 425 kts 13°
2026-04-25 14:36 52.92177 10.85339 37066 ft 425 kts 13°
2026-04-25 14:36 52.97745 10.88648 37063 ft 425 kts 13°
2026-04-25 14:37 53.03313 10.91977 37057 ft 425 kts 13°
2026-04-25 14:37 53.08876 10.95325 37053 ft 425 kts 13°
2026-04-25 14:38 53.14446 10.98681 37053 ft 426 kts 13°
2026-04-25 14:38 53.20014 11.02046 37053 ft 426 kts 13°
2026-04-25 14:39 53.25585 11.05441 37051 ft 426 kts 13°
2026-04-25 14:39 53.31163 11.08834 37048 ft 426 kts 13°
2026-04-25 14:40 53.36715 11.12187 37046 ft 427 kts 13°
2026-04-25 14:40 53.42298 11.15579 37047 ft 427 kts 13°
2026-04-25 14:41 53.47877 11.18999 37039 ft 427 kts 13°
2026-04-25 14:41 53.53472 11.22448 37034 ft 428 kts 13°
2026-04-25 14:42 53.58123 11.25303 37032 ft 428 kts 13°
2026-04-25 14:42 53.61864 11.27600 36874 ft 428 kts 13°
2026-04-25 14:42 53.64665 11.29327 36376 ft 428 kts 13°
2026-04-25 14:43 53.67455 11.31052 35878 ft 427 kts 13°
2026-04-25 14:43 53.70251 11.32784 35376 ft 430 kts 13°
2026-04-25 14:43 53.73066 11.34531 34879 ft 432 kts 13°
2026-04-25 14:43 53.75899 11.36292 34377 ft 433 kts 13°
2026-04-25 14:44 53.78731 11.38059 33877 ft 434 kts 13°
2026-04-25 14:44 53.81566 11.39827 33377 ft 435 kts 12°
2026-04-25 14:44 53.84399 11.41590 32877 ft 432 kts 13°
2026-04-25 14:44 53.87212 11.43352 32376 ft 430 kts 13°
2026-04-25 14:45 53.90007 11.45112 31875 ft 427 kts 13°
2026-04-25 14:45 53.92779 11.46857 31375 ft 424 kts 13°
2026-04-25 14:45 53.95537 11.48589 30875 ft 421 kts 13°
2026-04-25 14:45 53.98275 11.50309 30375 ft 418 kts 13°
2026-04-25 14:46 54.00995 11.52021 29867 ft 416 kts 13°
2026-04-25 14:46 54.03696 11.53724 29370 ft 413 kts 12°
2026-04-25 14:46 54.06375 11.55418 28871 ft 410 kts 12°
2026-04-25 14:46 54.09047 11.57108 28370 ft 408 kts 12°
2026-04-25 14:47 54.11699 11.58784 27870 ft 405 kts 12°
2026-04-25 14:47 54.13451 11.59890 27538 ft 404 kts 12°
2026-04-25 14:47 54.16963 11.62108 26868 ft 401 kts 12°
2026-04-25 14:47 54.19606 11.63776 26384 ft 415 kts 12°
2026-04-25 14:48 54.22364 11.65507 25929 ft 427 kts 13°
2026-04-25 14:48 54.25158 11.67279 25475 ft 429 kts 13°
2026-04-25 14:48 54.27954 11.69070 25025 ft 429 kts 13°
2026-04-25 14:48 54.30742 11.70865 24573 ft 427 kts 13°
2026-04-25 14:49 54.33515 11.72648 24123 ft 425 kts 13°
2026-04-25 14:49 54.36275 11.74424 23671 ft 423 kts 13°
2026-04-25 14:49 54.39023 11.76195 23217 ft 420 kts 13°
2026-04-25 14:49 54.41751 11.77952 22768 ft 418 kts 13°
2026-04-25 14:50 54.43547 11.79109 22466 ft 416 kts 13°
2026-04-25 14:50 54.47102 11.81514 21874 ft 414 kts 15°
2026-04-25 14:50 54.49730 11.83503 21422 ft 412 kts 17°
2026-04-25 14:50 54.52324 11.85587 20973 ft 410 kts 18°
2026-04-25 14:51 54.54889 11.87697 20522 ft 408 kts 18°
2026-04-25 14:51 54.57472 11.89816 20064 ft 404 kts 17°
2026-04-25 14:51 54.59978 11.91844 19621 ft 402 kts 17°
2026-04-25 14:51 54.62458 11.94075 19166 ft 405 kts 25°
2026-04-25 14:52 54.64808 11.96756 18719 ft 404 kts 26°
2026-04-25 14:52 54.67142 11.99440 18263 ft 401 kts 26°
2026-04-25 14:52 54.69455 12.02111 17817 ft 398 kts 26°
2026-04-25 14:52 54.70231 12.03008 17654 ft 398 kts 26°
2026-04-25 14:53 54.74040 12.07419 16914 ft 395 kts 26°
2026-04-25 14:53 54.76311 12.10056 16468 ft 392 kts 26°
2026-04-25 14:53 54.78570 12.12680 16015 ft 389 kts 26°
2026-04-25 14:53 54.80806 12.15278 15567 ft 386 kts 25°
2026-04-25 14:54 54.83035 12.17851 15114 ft 383 kts 25°
2026-04-25 14:54 54.85213 12.20508 14662 ft 385 kts 31°
2026-04-25 14:54 54.87272 12.23471 14238 ft 384 kts 32°
2026-04-25 14:54 54.89375 12.26254 13838 ft 378 kts 27°
2026-04-25 14:55 54.91511 12.28887 13429 ft 375 kts 26°
2026-04-25 14:55 54.93656 12.31454 13025 ft 373 kts 26°
2026-04-25 14:55 54.95789 12.33979 12632 ft 369 kts 26°
2026-04-25 14:55 54.97906 12.36488 12230 ft 366 kts 26°
2026-04-25 14:56 54.99986 12.38979 11829 ft 359 kts 26°
2026-04-25 14:56 55.02027 12.41441 11427 ft 353 kts 27°
2026-04-25 14:56 55.04029 12.43867 11032 ft 347 kts 27°
2026-04-25 14:56 55.05992 12.46252 10652 ft 342 kts 27°
2026-04-25 14:57 55.07930 12.48612 10277 ft 337 kts 27°
2026-04-25 14:57 55.09817 12.50909 9909 ft 332 kts 27°
2026-04-25 14:57 55.11700 12.53201 9533 ft 328 kts 27°
2026-04-25 14:57 55.13560 12.55463 9154 ft 324 kts 27°
2026-04-25 14:58 55.15398 12.57707 8787 ft 320 kts 28°
2026-04-25 14:58 55.17212 12.59926 8411 ft 317 kts 28°
2026-04-25 14:58 55.19011 12.62129 8030 ft 314 kts 28°
2026-04-25 14:58 55.20792 12.64310 7655 ft 312 kts 28°
2026-04-25 14:59 55.22563 12.66479 7290 ft 308 kts 28°
2026-04-25 14:59 55.24312 12.68620 6915 ft 306 kts 28°
2026-04-25 14:59 55.26046 12.70741 6537 ft 303 kts 28°
2026-04-25 14:59 55.27766 12.72847 6171 ft 300 kts 28°
2026-04-25 15:00 55.29467 12.74939 5816 ft 297 kts 28°
2026-04-25 15:00 55.31146 12.77013 5442 ft 294 kts 28°
2026-04-25 15:00 55.32820 12.79078 5066 ft 293 kts 28°
2026-04-25 15:00 55.34479 12.81129 4780 ft 290 kts 28°
2026-04-25 15:01 55.36115 12.83158 4532 ft 285 kts 28°
2026-04-25 15:01 55.37722 12.85149 4280 ft 280 kts 28°
2026-04-25 15:01 55.38773 12.86452 4113 ft 277 kts 28°
2026-04-25 15:01 55.40324 12.88403 3925 ft 271 kts 28°
2026-04-25 15:02 55.41827 12.90319 3768 ft 263 kts 28°
2026-04-25 15:02 55.43284 12.92187 3604 ft 255 kts 28°
2026-04-25 15:02 55.44695 12.94014 3434 ft 247 kts 26°
2026-04-25 15:02 55.46185 12.95095 3259 ft 220 kts 356°
2026-04-25 15:03 55.47646 12.95064 3112 ft 204 kts 346°
2026-04-25 15:03 55.49033 12.94857 3031 ft 198 kts 346°
2026-04-25 15:03 55.50352 12.94343 2999 ft 191 kts 329°
2026-04-25 15:03 55.51443 12.93087 3000 ft 185 kts 311°
2026-04-25 15:04 55.52216 12.91306 3001 ft 183 kts 301°
2026-04-25 15:04 55.52915 12.89441 2927 ft 180 kts 301°
2026-04-25 15:04 55.53590 12.87637 2748 ft 173 kts 301°
2026-04-25 15:04 55.54247 12.85880 2529 ft 169 kts 301°
2026-04-25 15:05 55.54882 12.84179 2356 ft 162 kts 300°
2026-04-25 15:05 55.55494 12.82537 2129 ft 158 kts 301°
2026-04-25 15:05 55.56078 12.80973 1923 ft 147 kts 302°
2026-04-25 15:06 55.57112 12.78200 1562 ft 125 kts 301°
2026-04-25 15:06 55.57585 12.76932 1393 ft 123 kts 301°
2026-04-25 15:06 55.58046 12.75691 1232 ft 122 kts 302°
2026-04-25 15:06 55.58509 12.74445 1070 ft 122 kts 301°
2026-04-25 15:07 55.58977 12.73179 911 ft 122 kts 301°
2026-04-25 15:07 55.59445 12.71911 736 ft 124 kts 301°
2026-04-25 15:07 55.59924 12.70626 570 ft 126 kts 302°
2026-04-25 15:07 55.60408 12.69333 415 ft 126 kts 303°
2026-04-25 15:08 55.60878 12.68045 235 ft 123 kts 304°
2026-04-25 15:08 55.61352 12.66782 62 ft 124 kts 302°
2026-04-25 15:08 55.61790 12.65601 18 ft 96 kts 304°
2026-04-25 15:08 55.62063 12.64864 20 ft 47 kts 303°
2026-04-25 15:09 55.62166 12.64585 19 ft 20 kts 301°
2026-04-25 15:09 55.62266 12.64423 16 ft 16 kts 346°
2026-04-25 15:09 55.62362 12.64437 19 ft 0 kts 15°
2026-04-25 15:10 55.62364 12.64438 17 ft 1 kts 14°
2026-04-25 15:10 55.62420 12.64464 17 ft 7 kts 15°
2026-04-25 15:11 55.62477 12.64483 17 ft 10 kts 354°
2026-04-25 15:11 55.62526 12.64394 18 ft 11 kts 302°
2026-04-25 15:11 55.62562 12.64293 17 ft 9 kts 303°
2026-04-25 15:12 55.62690 12.64332 17 ft 11 kts 22°
2026-04-25 15:12 55.62719 12.64375 19 ft 4 kts 87°
2026-04-25 15:12 55.62712 12.64437 17 ft 4 kts 102°
2026-04-25 15:12 55.62710 12.64456 17 ft 2 kts 102°
2026-04-25 15:13 55.62710 12.64458 17 ft 0 kts 102°